Rockford, IL

2:20 PM CDT on July 24, 2017 (GMT -0500)
Greater Rockford

Weather History for KRFD - December, 2011

Change the Weather History Date:

Monday, December 26, 2011

  Actual Average Record
Temperature  
Mean Temperature 33 °F 23 °F  
Max Temperature 44 °F 30 °F 54 °F (1905)
Min Temperature 21 °F 15 °F -23 °F (1914)
Degree Days  
Heating Degree Days 32 42  
Month to date heating degree days 839 1012  
Since 1 July heating degree days 2059 2347  
Cooling Degree Days 0 0  
Month to date cooling degree days 0 0  
Year to date cooling degree days 1019 820  
Moisture  
Dew Point 25 °F    
Average Humidity 71    
Maximum Humidity 92    
Minimum Humidity 49    
Precipitation  
Precipitation T in 0.05 in 0.75 in (1988)
Month to date precipitation 1.74 1.73  
Year to date precipitation 38.72 35.99  
Snow  
Snow 0.00 in 0.40 in 9.50 in (1988)
Month to date snowfall 1.7 9.4  
Since 1 July snowfall 1.7 11.2  
Snow Depth -    
Sea Level Pressure  
Sea Level Pressure 30.13 in    
Wind  
Wind Speed 11 mph (South)    
Max Wind Speed 25 mph    
Max Gust Speed 32 mph    
Visibility 10 miles    
Events Rain    
T = Trace of Precipitation, MM = Missing Value Source: NWS Daily Summary

Daily Weather History Graph

Daily Weather History Graph

Search for Another Location

Airport or City:

Trip Planner

Search our weather history database for the weather conditions in past years. The results will help you decide how hot, cold, wet, or windy it might be!

Date:

Astronomy

Dec. 26, 2011 Rise Set
Actual Time 7:23 AM CST 4:30 PM CST
Civil Twilight 6:51 AM CST 5:02 PM CST
Nautical Twilight 6:16 AM CST 5:37 PM CST
Astronomical Twilight 5:42 AM CST 6:11 PM CST
Moon 8:41 AM CST (12/26) 7:00 PM CST (12/26)
Length of Visible Light 10h 10m
Length of Day
9h 06m
Waxing Crescent, 5% of the Moon is Illuminated
Dec 26
Waxing Crescent
Jan 1
First Quarter
Jan 9
Full
Jan 16
Last Quarter
Jan 23
New

Hourly Weather History & Observations

Time (CST) Temp. Windchill Dew Point Humidity Pressure Visibility Wind Dir Wind Speed Gust Speed Precip Events Conditions
12:54 AM 23.0 °F 15.8 °F 19.0 °F 85% 30.34 in 10.0 mi SSE 5.8 mph - N/A   Clear
1:54 AM 24.1 °F 19.7 °F 19.9 °F 84% 30.34 in 10.0 mi SSE 3.5 mph - N/A   Clear
2:54 AM 23.0 °F 17.0 °F 19.9 °F 88% 30.33 in 10.0 mi SSE 4.6 mph - N/A   Clear
3:54 AM 21.9 °F 14.5 °F 19.0 °F 89% 30.31 in 10.0 mi SSE 5.8 mph - N/A   Clear
4:54 AM 21.9 °F 15.7 °F 19.0 °F 89% 30.30 in 10.0 mi South 4.6 mph - N/A   Clear
5:54 AM 23.0 °F 18.4 °F 19.0 °F 85% 30.29 in 10.0 mi SSE 3.5 mph - N/A   Clear
6:54 AM 21.9 °F 13.4 °F 19.0 °F 89% 30.25 in 10.0 mi South 6.9 mph - N/A   Clear
7:54 AM 24.1 °F - 21.0 °F 88% 30.26 in 10.0 mi Calm Calm - N/A   Clear
8:54 AM 30.9 °F 23.5 °F 26.1 °F 82% 30.24 in 10.0 mi South 8.1 mph - N/A   Partly Cloudy
9:54 AM 35.6 °F 27.5 °F 28.4 °F 75% 30.21 in 10.0 mi SSW 11.5 mph - N/A   Partly Cloudy
10:54 AM 39.0 °F 30.6 °F 28.0 °F 65% 30.20 in 10.0 mi SSW 15.0 mph 21.9 mph N/A   Clear
11:54 AM 42.1 °F 32.8 °F 27.0 °F 55% 30.16 in 10.0 mi SW 21.9 mph 31.1 mph N/A   Clear
12:54 PM 44.1 °F 36.2 °F 27.0 °F 51% 30.13 in 10.0 mi SSW 18.4 mph 29.9 mph N/A   Partly Cloudy
1:54 PM 43.0 °F 35.1 °F 27.0 °F 53% 30.09 in 10.0 mi SSW 17.3 mph - N/A   Scattered Clouds
2:54 PM 42.1 °F 34.2 °F 28.0 °F 58% 30.03 in 10.0 mi SSW 16.1 mph - N/A   Mostly Cloudy
3:54 PM 41.0 °F 34.7 °F 28.0 °F 60% 30.05 in 10.0 mi SSW 10.4 mph - N/A   Overcast
4:54 PM 39.0 °F 30.6 °F 28.0 °F 65% 30.05 in 10.0 mi SSW 15.0 mph - N/A   Overcast
5:54 PM 37.9 °F 29.6 °F 28.0 °F 68% 30.02 in 10.0 mi SSW 13.8 mph - N/A   Overcast
6:54 PM 37.0 °F 29.3 °F 28.0 °F 70% 30.01 in 10.0 mi South 11.5 mph - N/A   Overcast
7:54 PM 37.0 °F 29.8 °F 28.0 °F 70% 29.99 in 10.0 mi SSW 10.4 mph - N/A   Overcast
8:54 PM 37.0 °F 29.3 °F 27.0 °F 67% 29.96 in 10.0 mi SSW 11.5 mph - N/A   Overcast
9:54 PM 37.0 °F 28.9 °F 28.0 °F 70% 29.91 in 10.0 mi South 12.7 mph - 0.00 in Rain Light Rain
10:54 PM 36.0 °F 27.5 °F 28.0 °F 73% 29.87 in 10.0 mi South 12.7 mph - 0.00 in Rain Light Rain
11:54 PM 36.0 °F 28.0 °F 28.9 °F 76% 29.85 in 10.0 mi SSW 11.5 mph - 0.00 in   Overcast